AFR116 LFPG-ZSPD

Flight info

Callsign AFR116
Flight time N/A
Altitude 31000
Route LANVI DCT LUPEN UM164 UTABA DCT INPUL DCT VATET DCT MOPUG DCT ASNEL DCT UDROS UM859 KARDE UL851 TBN UM11 REBLO M11 LUSAL N199 RASAM L88 METKA B476 TIMGA A480 OTBOR/K0848F310 N147 ELAHA Z621 ARBOL M610 RULAD/K0832S0945 A343 POSOT B215 FKG W188 LIKMI W270 DKO W69 HUR B339 SOTMU W98 ELKUR W40 YQG W142 DALIM A593 DPX A470 DALNU W166 ZJ W167 SASAN SAS82A
Aircraft B772/H-SDE2E3FGHIJ5LORVWXY/LB1D1

Departure

Time 2026-05-05 08:38
Airport Charles de Gaulle International Airport (LFPG)

Arrival

Time N/A
Airport Shanghai Pudong International Airport (ZSPD)
Time Latitude Longitude Altitude Speed Heading
2026-05-05 07:56 49.00146 2.57919 365 ft 0 kts 355°
2026-05-05 08:27 49.00138 2.57920 359 ft 4 kts 355°
2026-05-05 08:27 49.00111 2.57923 363 ft 4 kts 355°
2026-05-05 08:27 49.00088 2.57927 360 ft 4 kts 337°
2026-05-05 08:27 49.00073 2.57950 367 ft 4 kts 275°
2026-05-05 08:28 49.00075 2.57991 365 ft 4 kts 262°
2026-05-05 08:28 49.00077 2.58018 363 ft 0 kts 265°
2026-05-05 08:30 49.00076 2.58005 365 ft 5 kts 265°
2026-05-05 08:31 49.00071 2.57908 366 ft 12 kts 265°
2026-05-05 08:31 49.00063 2.57782 364 ft 12 kts 255°
2026-05-05 08:31 49.00016 2.57737 367 ft 10 kts 202°
2026-05-05 08:31 48.99975 2.57622 365 ft 16 kts 262°
2026-05-05 08:32 48.99964 2.57441 358 ft 17 kts 265°
2026-05-05 08:32 48.99955 2.57259 358 ft 17 kts 265°
2026-05-05 08:32 48.99945 2.57076 367 ft 17 kts 265°
2026-05-05 08:32 48.99935 2.56894 358 ft 17 kts 265°
2026-05-05 08:33 48.99925 2.56714 364 ft 17 kts 265°
2026-05-05 08:33 48.99916 2.56532 366 ft 17 kts 265°
2026-05-05 08:33 48.99906 2.56349 358 ft 17 kts 265°
2026-05-05 08:33 48.99897 2.56167 359 ft 17 kts 265°
2026-05-05 08:34 48.99890 2.55985 358 ft 17 kts 271°
2026-05-05 08:34 48.99914 2.55806 364 ft 17 kts 288°
2026-05-05 08:34 48.99930 2.55631 367 ft 17 kts 250°
2026-05-05 08:34 48.99893 2.55458 359 ft 17 kts 262°
2026-05-05 08:35 48.99883 2.55276 364 ft 17 kts 266°
2026-05-05 08:35 48.99874 2.55096 365 ft 17 kts 266°
2026-05-05 08:35 48.99865 2.54916 361 ft 16 kts 261°
2026-05-05 08:35 48.99804 2.54838 365 ft 11 kts 180°
2026-05-05 08:36 48.99737 2.54893 363 ft 11 kts 128°
2026-05-05 08:36 48.99699 2.55008 367 ft 16 kts 116°
2026-05-05 08:36 48.99639 2.55193 367 ft 20 kts 116°
2026-05-05 08:36 48.99584 2.55388 364 ft 20 kts 102°
2026-05-05 08:37 48.99589 2.55615 361 ft 28 kts 85°
2026-05-05 08:37 48.99618 2.56147 360 ft 83 kts 85°
2026-05-05 08:37 48.99683 2.57371 356 ft 147 kts 83°
2026-05-05 08:37 48.99782 2.59132 606 ft 174 kts 85°
2026-05-05 08:38 48.99859 2.61014 1411 ft 178 kts 84°
2026-05-05 08:38 48.99934 2.62914 2396 ft 183 kts 84°
2026-05-05 08:38 49.00020 2.64894 3194 ft 194 kts 85°
2026-05-05 08:38 49.00145 2.67088 3594 ft 222 kts 84°
2026-05-05 08:39 49.00298 2.69480 4238 ft 232 kts 84°
2026-05-05 08:39 49.00449 2.72007 4745 ft 246 kts 85°
2026-05-05 08:39 49.00592 2.74654 5366 ft 254 kts 85°
2026-05-05 08:39 49.00725 2.77323 5950 ft 257 kts 87°
2026-05-05 08:40 49.00622 2.80065 6398 ft 264 kts 98°
2026-05-05 08:40 49.00298 2.82812 7002 ft 264 kts 99°
2026-05-05 08:40 48.99965 2.85566 7609 ft 266 kts 99°
2026-05-05 08:40 48.99648 2.88363 8157 ft 270 kts 98°
2026-05-05 08:41 48.99340 2.91198 8726 ft 273 kts 98°
2026-05-05 08:41 48.99036 2.94052 9336 ft 275 kts 98°
2026-05-05 08:41 48.98741 2.96929 9825 ft 274 kts 97°
2026-05-05 08:41 48.98492 2.99838 10111 ft 283 kts 96°
2026-05-05 08:42 48.98245 3.02873 10227 ft 302 kts 96°
2026-05-05 08:42 48.97979 3.06135 10375 ft 320 kts 96°
2026-05-05 08:42 48.97694 3.09608 10538 ft 339 kts 97°
2026-05-05 08:42 48.97393 3.13236 10994 ft 350 kts 97°
2026-05-05 08:43 48.97081 3.16942 11660 ft 354 kts 97°
2026-05-05 08:43 48.96766 3.20673 12486 ft 356 kts 97°
2026-05-05 08:43 48.96447 3.24420 13271 ft 359 kts 97°
2026-05-05 08:43 48.96123 3.28211 13954 ft 364 kts 97°
2026-05-05 08:44 48.95795 3.32036 14626 ft 367 kts 98°
2026-05-05 08:44 48.95466 3.35867 15183 ft 373 kts 98°
2026-05-05 08:44 48.95124 3.39812 15708 ft 379 kts 98°
2026-05-05 08:44 48.94779 3.43800 16381 ft 381 kts 98°
2026-05-05 08:45 48.94430 3.47814 17038 ft 384 kts 99°
2026-05-05 08:45 48.94077 3.51853 17648 ft 387 kts 99°
2026-05-05 08:45 48.93725 3.55934 18251 ft 390 kts 98°
2026-05-05 08:45 48.93461 3.60061 18775 ft 394 kts 96°
2026-05-05 08:46 48.93251 3.64236 19236 ft 398 kts 96°
2026-05-05 08:46 48.93051 3.68455 19723 ft 402 kts 96°
2026-05-05 08:46 48.92845 3.72711 20209 ft 405 kts 96°
2026-05-05 08:46 48.92632 3.76932 20687 ft 408 kts 96°
2026-05-05 08:47 48.92406 3.81248 21142 ft 411 kts 96°
2026-05-05 08:47 48.92172 3.85597 21590 ft 415 kts 97°
2026-05-05 08:47 48.91933 3.89982 22057 ft 418 kts 97°
2026-05-05 08:47 48.91689 3.94398 22521 ft 421 kts 97°
2026-05-05 08:48 48.91442 3.98847 22970 ft 424 kts 97°
2026-05-05 08:48 48.91192 4.03329 23415 ft 427 kts 97°
2026-05-05 08:48 48.90938 4.07839 23804 ft 430 kts 97°
2026-05-05 08:48 48.90686 4.12321 24208 ft 432 kts 97°
2026-05-05 08:49 48.90425 4.16886 24637 ft 435 kts 97°
2026-05-05 08:49 48.90123 4.21451 25010 ft 434 kts 102°
2026-05-05 08:49 48.89202 4.25795 25204 ft 432 kts 120°
2026-05-05 08:49 48.87668 4.29717 25433 ft 435 kts 123°
2026-05-05 08:50 48.86125 4.33693 25775 ft 438 kts 122°
2026-05-05 08:50 48.84612 4.37711 26191 ft 439 kts 122°
2026-05-05 08:50 48.83119 4.41739 26660 ft 438 kts 122°
2026-05-05 08:50 48.81628 4.45790 27058 ft 440 kts 122°
2026-05-05 08:51 48.80155 4.49800 27390 ft 443 kts 122°
2026-05-05 08:51 48.78650 4.53894 27707 ft 446 kts 122°
2026-05-05 08:51 48.77136 4.58008 28077 ft 448 kts 122°
2026-05-05 08:51 48.75611 4.62140 28455 ft 450 kts 123°
2026-05-05 08:52 48.74081 4.66281 28830 ft 452 kts 123°
2026-05-05 08:52 48.72541 4.70439 29203 ft 454 kts 123°
2026-05-05 08:52 48.70996 4.74608 29625 ft 454 kts 123°
2026-05-05 08:52 48.69451 4.78770 30107 ft 452 kts 123°
2026-05-05 08:53 48.67924 4.82879 30715 ft 445 kts 124°
2026-05-05 08:53 48.66419 4.86919 30884 ft 449 kts 124°
2026-05-05 08:53 48.64879 4.91040 30885 ft 450 kts 124°
2026-05-05 08:54 48.61816 4.99227 30898 ft 450 kts 124°
2026-05-05 08:54 48.58689 5.07543 31059 ft 460 kts 124°
2026-05-05 08:54 48.57103 5.11758 31245 ft 462 kts 124°
2026-05-05 08:55 48.55514 5.15977 31530 ft 462 kts 124°
2026-05-05 08:55 48.53935 5.20171 31993 ft 459 kts 124°
2026-05-05 08:55 48.52355 5.24355 32319 ft 458 kts 124°
2026-05-05 08:55 48.50799 5.28466 32625 ft 458 kts 124°
2026-05-05 08:56 48.49219 5.32631 32896 ft 458 kts 124°
2026-05-05 08:56 48.47638 5.36792 33183 ft 457 kts 124°
2026-05-05 08:56 48.46056 5.40948 33481 ft 457 kts 124°
2026-05-05 08:56 48.44475 5.45099 33775 ft 457 kts 124°
2026-05-05 08:57 48.42893 5.49246 34018 ft 456 kts 124°
2026-05-05 08:57 48.41307 5.53395 34199 ft 458 kts 124°
2026-05-05 08:57 48.40256 5.56143 34313 ft 459 kts 124°
2026-05-05 08:57 48.38658 5.60312 34509 ft 460 kts 125°
2026-05-05 08:58 48.36544 5.65823 34808 ft 460 kts 124°
2026-05-05 08:58 48.34946 5.69985 35000 ft 461 kts 124°
2026-05-05 08:58 48.33336 5.74161 35181 ft 462 kts 124°
2026-05-05 08:59 48.31443 5.81682 35267 ft 478 kts 101°
2026-05-05 08:59 48.31501 5.86722 35415 ft 485 kts 86°
2026-05-05 08:59 48.31966 5.91751 35497 ft 488 kts 86°
2026-05-05 08:59 48.32389 5.96812 35667 ft 488 kts 87°
2026-05-05 09:00 48.32776 6.01871 35893 ft 487 kts 88°
2026-05-05 09:00 48.33257 6.08586 36124 ft 489 kts 88°
2026-05-05 09:00 48.33607 6.13678 36302 ft 490 kts 88°
2026-05-05 09:00 48.33836 6.17050 36438 ft 490 kts 88°
2026-05-05 09:01 48.34179 6.22143 36677 ft 489 kts 88°
2026-05-05 09:01 48.34522 6.27234 36857 ft 492 kts 88°
2026-05-05 09:01 48.34867 6.32373 36847 ft 496 kts 88°
2026-05-05 09:02 48.35554 6.42629 36869 ft 489 kts 88°
2026-05-05 09:02 48.36228 6.52772 36867 ft 486 kts 88°
2026-05-05 09:03 48.36882 6.62812 36878 ft 485 kts 88°
2026-05-05 09:03 48.37530 6.72913 36891 ft 485 kts 88°
2026-05-05 09:04 48.38171 6.83030 36890 ft 486 kts 88°
2026-05-05 09:04 48.38804 6.93168 36881 ft 488 kts 88°
2026-05-05 09:05 48.39532 7.04999 36900 ft 490 kts 88°
2026-05-05 09:05 48.40048 7.13494 36887 ft 491 kts 88°
2026-05-05 09:06 48.40661 7.23746 36884 ft 493 kts 88°
2026-05-05 09:06 48.41266 7.34016 36860 ft 492 kts 89°
2026-05-05 09:07 48.41861 7.44259 36889 ft 491 kts 89°
2026-05-05 09:07 48.42441 7.54417 36879 ft 490 kts 89°
2026-05-05 09:08 48.43015 7.64617 36881 ft 488 kts 89°
2026-05-05 09:08 48.43307 7.74790 36874 ft 483 kts 97°
2026-05-05 09:09 48.42477 7.84747 36876 ft 478 kts 103°
2026-05-05 09:09 48.41457 7.94584 36884 ft 479 kts 103°
2026-05-05 09:10 48.40452 8.04495 36892 ft 480 kts 102°
2026-05-05 09:10 48.39458 8.14443 36881 ft 481 kts 102°
2026-05-05 09:11 48.38459 8.24412 36887 ft 482 kts 102°
2026-05-05 09:11 48.37449 8.34394 36875 ft 483 kts 103°
2026-05-05 09:12 48.36436 8.44321 36869 ft 484 kts 103°
2026-05-05 09:12 48.35404 8.54315 36868 ft 483 kts 103°
2026-05-05 09:13 48.34364 8.64301 36845 ft 483 kts 103°
2026-05-05 09:13 48.33318 8.74266 36865 ft 483 kts 103°
2026-05-05 09:14 48.32263 8.84231 36870 ft 482 kts 103°
2026-05-05 09:14 48.31208 8.94111 36868 ft 483 kts 103°
2026-05-05 09:15 48.30137 9.04060 36864 ft 482 kts 103°
2026-05-05 09:15 48.29056 9.14004 36867 ft 483 kts 103°
2026-05-05 09:16 48.27967 9.23955 36862 ft 483 kts 103°
2026-05-05 09:16 48.26869 9.33903 36861 ft 483 kts 103°
2026-05-05 09:17 48.25771 9.43782 36862 ft 483 kts 103°
2026-05-05 09:17 48.24656 9.53729 36864 ft 483 kts 103°
2026-05-05 09:18 48.23535 9.63677 36875 ft 484 kts 103°
2026-05-05 09:18 48.22407 9.73627 36880 ft 484 kts 103°
2026-05-05 09:19 48.21269 9.83583 36884 ft 485 kts 103°
2026-05-05 09:19 48.20130 9.93475 36880 ft 485 kts 103°
2026-05-05 09:20 48.18971 10.03448 36874 ft 486 kts 103°
2026-05-05 09:20 48.17805 10.13407 36877 ft 485 kts 104°
2026-05-05 09:21 48.16630 10.23369 36881 ft 485 kts 104°
2026-05-05 09:21 48.15455 10.33250 36847 ft 485 kts 104°
2026-05-05 09:22 48.14263 10.43202 36861 ft 486 kts 104°
2026-05-05 09:22 48.13061 10.53156 36859 ft 486 kts 104°
2026-05-05 09:23 48.11849 10.63117 36856 ft 487 kts 104°
2026-05-05 09:23 48.10635 10.73016 36836 ft 487 kts 104°
2026-05-05 09:24 48.09404 10.82985 36857 ft 488 kts 104°
2026-05-05 09:24 48.08161 10.92980 36860 ft 489 kts 104°
2026-05-05 09:25 48.06906 11.02991 36859 ft 490 kts 104°
2026-05-05 09:25 48.05640 11.13014 36844 ft 491 kts 104°
2026-05-05 09:26 48.04371 11.22989 36856 ft 492 kts 104°
2026-05-05 09:26 48.03085 11.33025 36884 ft 492 kts 104°
2026-05-05 09:27 48.01789 11.43071 36860 ft 493 kts 104°
2026-05-05 09:27 48.00483 11.53116 36852 ft 493 kts 104°
2026-05-05 09:28 47.99179 11.63075 36843 ft 492 kts 104°
2026-05-05 09:28 47.97857 11.73095 36852 ft 492 kts 104°
2026-05-05 09:29 47.96528 11.83103 36844 ft 492 kts 104°
2026-05-05 09:29 47.95189 11.93110 36845 ft 492 kts 104°
2026-05-05 09:30 47.93853 12.03034 36831 ft 491 kts 104°
2026-05-05 09:30 47.92500 12.13012 36843 ft 491 kts 104°
2026-05-05 09:31 47.91139 12.22981 36837 ft 491 kts 104°
2026-05-05 09:31 47.89770 12.32941 36840 ft 491 kts 104°
2026-05-05 09:32 47.88399 12.42839 36839 ft 491 kts 104°
2026-05-05 09:32 47.87013 12.52788 36839 ft 491 kts 104°
2026-05-05 09:33 47.85618 12.62735 36847 ft 491 kts 104°
2026-05-05 09:33 47.84215 12.72684 36841 ft 491 kts 105°
2026-05-05 09:34 47.82641 12.82549 36836 ft 489 kts 108°
2026-05-05 09:34 47.80827 12.92235 36871 ft 489 kts 109°
2026-05-05 09:35 47.79000 13.01987 36859 ft 490 kts 108°
2026-05-05 09:35 47.76313 13.16656 36819 ft 490 kts 108°
2026-05-05 09:36 47.74536 13.26370 36829 ft 491 kts 108°
2026-05-05 09:36 47.72735 13.36148 36840 ft 491 kts 108°
2026-05-05 09:37 47.70925 13.45916 36834 ft 491 kts 108°
2026-05-05 09:37 47.69107 13.55675 36828 ft 491 kts 108°
2026-05-05 09:38 47.67282 13.65423 36842 ft 490 kts 108°
2026-05-05 09:38 47.65459 13.75103 36831 ft 490 kts 108°
2026-05-05 09:39 47.63617 13.84840 36845 ft 491 kts 108°
2026-05-05 09:39 47.61766 13.94574 36864 ft 490 kts 108°
2026-05-05 09:40 47.59909 14.04303 36859 ft 490 kts 108°
2026-05-05 09:40 47.58124 14.13983 36861 ft 491 kts 107°
2026-05-05 09:41 47.56356 14.23752 36863 ft 491 kts 107°
2026-05-05 09:41 47.54579 14.33509 36866 ft 491 kts 108°
2026-05-05 09:42 47.52784 14.43257 36876 ft 491 kts 108°
2026-05-05 09:42 47.50976 14.53004 36889 ft 492 kts 108°
2026-05-05 09:43 47.49169 14.62693 36896 ft 492 kts 108°
2026-05-05 09:43 47.47340 14.72445 36891 ft 493 kts 108°
2026-05-05 09:44 47.45503 14.82196 36899 ft 493 kts 108°
2026-05-05 09:44 47.43657 14.91946 36908 ft 493 kts 108°
2026-05-05 09:45 47.41815 15.01624 36896 ft 493 kts 108°
2026-05-05 09:45 47.39954 15.11351 36896 ft 493 kts 108°
2026-05-05 09:46 47.38083 15.21076 36897 ft 492 kts 108°
2026-05-05 09:46 47.36209 15.30771 36896 ft 491 kts 108°
2026-05-05 09:47 47.34347 15.40396 36899 ft 491 kts 108°
2026-05-05 09:47 47.32454 15.50071 36903 ft 491 kts 108°
2026-05-05 09:48 47.30554 15.59733 36890 ft 491 kts 108°
2026-05-05 09:48 47.28651 15.69382 36909 ft 490 kts 108°
2026-05-05 09:49 47.26742 15.79013 36899 ft 490 kts 108°
2026-05-05 09:49 47.24837 15.88575 36899 ft 490 kts 108°
2026-05-05 09:50 47.22911 15.98200 36906 ft 490 kts 108°
2026-05-05 09:50 47.20976 16.07817 36904 ft 491 kts 108°
2026-05-05 09:51 47.19033 16.17430 36911 ft 491 kts 108°
2026-05-05 09:51 47.17081 16.27044 36912 ft 491 kts 108°
2026-05-05 09:52 47.15133 16.36587 36917 ft 491 kts 108°
2026-05-05 09:52 47.13165 16.46185 36918 ft 491 kts 108°
2026-05-05 09:53 47.11189 16.55775 36913 ft 491 kts 108°
2026-05-05 09:53 47.09206 16.65351 36914 ft 490 kts 108°
2026-05-05 09:54 47.07229 16.74854 36925 ft 490 kts 108°
2026-05-05 09:54 47.05229 16.84421 36936 ft 491 kts 108°
2026-05-05 09:55 47.03219 16.93994 36927 ft 491 kts 109°
2026-05-05 09:55 47.01201 17.03559 36946 ft 492 kts 108°
2026-05-05 09:56 46.99184 17.13072 36948 ft 492 kts 108°
2026-05-05 09:56 46.97148 17.22632 36943 ft 492 kts 108°
2026-05-05 09:57 46.95101 17.32193 36955 ft 492 kts 109°
2026-05-05 09:57 46.93048 17.41746 36955 ft 492 kts 109°
2026-05-05 09:58 46.91004 17.51214 36952 ft 491 kts 109°
2026-05-05 09:58 46.88940 17.60729 36968 ft 491 kts 109°
2026-05-05 09:59 46.86865 17.70242 36968 ft 491 kts 109°
2026-05-05 09:59 46.84786 17.79738 36966 ft 491 kts 109°
2026-05-05 10:00 46.82714 17.89161 36984 ft 490 kts 109°
2026-05-05 10:00 46.80622 17.98627 36975 ft 490 kts 109°
2026-05-05 10:01 46.78527 18.08073 36979 ft 489 kts 109°
2026-05-05 10:01 46.76424 18.17505 36976 ft 489 kts 109°
2026-05-05 10:02 46.74330 18.26852 36980 ft 488 kts 109°
2026-05-05 10:02 46.72216 18.36250 36985 ft 488 kts 109°
2026-05-05 10:03 46.70096 18.45635 36984 ft 487 kts 109°
2026-05-05 10:03 46.67970 18.55006 36992 ft 487 kts 109°
2026-05-05 10:04 46.65849 18.64310 36991 ft 487 kts 109°
2026-05-05 10:04 46.63707 18.73668 36997 ft 487 kts 109°
2026-05-05 10:05 46.61558 18.83021 37005 ft 488 kts 109°
2026-05-05 10:05 46.59398 18.92377 36993 ft 488 kts 109°
2026-05-05 10:06 46.57230 19.01722 36999 ft 488 kts 109°
2026-05-05 10:06 46.55068 19.11005 37000 ft 488 kts 109°
2026-05-05 10:07 46.52884 19.20347 36998 ft 489 kts 109°
2026-05-05 10:07 46.50689 19.29690 36993 ft 489 kts 109°
2026-05-05 10:08 46.48486 19.39028 36998 ft 489 kts 109°
2026-05-05 10:08 46.46292 19.48291 36998 ft 489 kts 109°
2026-05-05 10:09 46.44076 19.57605 37006 ft 488 kts 109°
2026-05-05 10:09 46.41853 19.66912 37013 ft 488 kts 109°
2026-05-05 10:10 46.39627 19.76190 37013 ft 488 kts 109°
2026-05-05 10:10 46.37408 19.85402 37010 ft 487 kts 109°
2026-05-05 10:11 46.35170 19.94654 37016 ft 487 kts 109°
2026-05-05 10:11 46.32927 20.03888 37015 ft 486 kts 109°
2026-05-05 10:12 46.30680 20.13102 37015 ft 486 kts 109°
2026-05-05 10:12 46.28440 20.22250 37016 ft 486 kts 109°
2026-05-05 10:13 46.26178 20.31446 37017 ft 486 kts 109°
2026-05-05 10:13 46.23909 20.40637 37020 ft 486 kts 109°
2026-05-05 10:14 46.21632 20.49825 37018 ft 486 kts 109°
2026-05-05 10:14 46.19347 20.59007 37019 ft 486 kts 109°
2026-05-05 10:15 46.17070 20.68123 37019 ft 486 kts 109°
2026-05-05 10:15 46.14749 20.77282 37022 ft 487 kts 109°
2026-05-05 10:16 46.12377 20.86426 37030 ft 487 kts 109°
2026-05-05 10:16 46.09994 20.95575 37039 ft 487 kts 109°
2026-05-05 10:17 46.07626 21.04656 37043 ft 488 kts 109°
2026-05-05 10:17 46.05236 21.13794 37044 ft 488 kts 109°
2026-05-05 10:18 46.02839 21.22934 37045 ft 488 kts 109°
2026-05-05 10:18 46.00432 21.32071 37042 ft 489 kts 109°
2026-05-05 10:19 45.98033 21.41145 37040 ft 489 kts 110°
2026-05-05 10:19 45.95609 21.50274 37051 ft 489 kts 109°
2026-05-05 10:20 45.93175 21.59407 37020 ft 490 kts 109°
2026-05-05 10:20 45.90735 21.68531 37025 ft 490 kts 110°
2026-05-05 10:21 45.88301 21.77592 37032 ft 490 kts 110°
2026-05-05 10:21 45.85843 21.86709 37032 ft 490 kts 109°
2026-05-05 10:22 45.83380 21.95813 37024 ft 490 kts 110°
2026-05-05 10:22 45.80909 22.04909 37027 ft 489 kts 110°
2026-05-05 10:23 45.78447 22.13936 37036 ft 489 kts 110°
2026-05-05 10:23 45.75967 22.22995 37026 ft 488 kts 110°
2026-05-05 10:24 45.73483 22.32035 37020 ft 487 kts 110°
2026-05-05 10:24 45.71015 22.40984 37031 ft 486 kts 110°
2026-05-05 10:25 45.68528 22.49973 37039 ft 486 kts 110°
2026-05-05 10:25 45.66035 22.58947 37027 ft 486 kts 110°
2026-05-05 10:26 45.63536 22.67908 37033 ft 485 kts 110°
2026-05-05 10:26 45.61049 22.76789 37035 ft 484 kts 110°
2026-05-05 10:27 45.58540 22.85723 37041 ft 484 kts 110°
2026-05-05 10:27 45.56028 22.94635 37036 ft 484 kts 110°
2026-05-05 10:28 45.53505 23.03548 37035 ft 484 kts 110°
2026-05-05 10:28 45.50994 23.12389 37041 ft 484 kts 110°
2026-05-05 10:29 45.48458 23.21287 37053 ft 485 kts 110°
2026-05-05 10:29 45.45912 23.30187 37040 ft 485 kts 110°
2026-05-05 10:30 45.43359 23.39079 37047 ft 485 kts 110°
2026-05-05 10:30 45.40814 23.47914 37055 ft 486 kts 110°
2026-05-05 10:31 45.38243 23.56803 37049 ft 486 kts 110°
2026-05-05 10:31 45.35664 23.65691 37050 ft 486 kts 110°
2026-05-05 10:32 45.33077 23.74570 37048 ft 486 kts 110°
2026-05-05 10:32 45.30508 23.83358 37056 ft 485 kts 110°
2026-05-05 10:33 45.27913 23.92204 37039 ft 485 kts 110°
2026-05-05 10:33 45.25316 24.01028 37039 ft 484 kts 110°
2026-05-05 10:34 45.22732 24.09779 37056 ft 484 kts 110°
2026-05-05 10:34 45.20122 24.18582 37054 ft 484 kts 110°
2026-05-05 10:35 45.17504 24.27382 37035 ft 485 kts 110°
2026-05-05 10:35 45.14876 24.36183 37033 ft 485 kts 110°
2026-05-05 10:36 45.12240 24.44986 37028 ft 486 kts 110°
2026-05-05 10:36 45.09615 24.53717 37036 ft 486 kts 110°
2026-05-05 10:37 45.06960 24.62518 37019 ft 486 kts 111°
2026-05-05 10:37 45.04298 24.71312 37023 ft 486 kts 111°
2026-05-05 10:38 45.01631 24.80092 37026 ft 486 kts 111°
2026-05-05 10:38 44.98975 24.88809 37033 ft 486 kts 111°
2026-05-05 10:39 44.96294 24.97574 37035 ft 486 kts 111°
2026-05-05 10:39 44.93609 25.06322 37016 ft 485 kts 111°
2026-05-05 10:40 44.90920 25.15053 37013 ft 485 kts 111°
2026-05-05 10:40 44.88247 25.23705 37023 ft 484 kts 111°
2026-05-05 10:41 44.85550 25.32401 37028 ft 484 kts 111°
2026-05-05 10:41 44.82853 25.41074 37038 ft 483 kts 111°
2026-05-05 10:42 44.78798 25.54055 37043 ft 483 kts 111°
2026-05-05 10:43 44.76106 25.62637 37037 ft 483 kts 111°
2026-05-05 10:43 44.73389 25.71270 37037 ft 482 kts 111°
2026-05-05 10:44 44.70665 25.79898 37043 ft 483 kts 111°
2026-05-05 10:44 44.67935 25.88514 37053 ft 483 kts 111°
2026-05-05 10:45 44.65195 25.97133 37049 ft 483 kts 111°
2026-05-05 10:45 44.62467 26.05686 37051 ft 483 kts 111°
2026-05-05 10:46 44.59715 26.14288 37062 ft 483 kts 112°
2026-05-05 10:46 44.56957 26.22883 37051 ft 483 kts 112°
2026-05-05 10:47 44.54194 26.31467 37030 ft 483 kts 112°
2026-05-05 10:47 44.51117 26.39764 37044 ft 483 kts 116°
2026-05-05 10:48 44.47853 26.47991 37048 ft 483 kts 117°
2026-05-05 10:48 44.44587 26.56217 37037 ft 484 kts 117°
2026-05-05 10:49 44.41329 26.64453 37039 ft 484 kts 116°
2026-05-05 10:49 44.38095 26.72628 37042 ft 484 kts 117°
2026-05-05 10:50 44.34832 26.80854 37044 ft 484 kts 117°
2026-05-05 10:50 44.31565 26.89064 37042 ft 484 kts 117°
2026-05-05 10:51 44.28287 26.97275 37042 ft 484 kts 117°
2026-05-05 10:51 44.25005 27.05475 37054 ft 484 kts 117°
2026-05-05 10:52 44.21736 27.13617 37043 ft 485 kts 117°
2026-05-05 10:52 44.18437 27.21807 37043 ft 485 kts 117°
2026-05-05 10:53 44.15131 27.29994 37048 ft 485 kts 117°
2026-05-05 10:53 44.11819 27.38172 37056 ft 485 kts 117°
2026-05-05 10:54 44.08527 27.46277 37050 ft 484 kts 117°
2026-05-05 10:54 44.05210 27.54419 37045 ft 483 kts 117°
2026-05-05 10:55 44.01894 27.62536 37050 ft 482 kts 118°
2026-05-05 10:55 43.98581 27.70625 37055 ft 481 kts 118°
2026-05-05 10:56 43.95290 27.78636 37044 ft 480 kts 118°
2026-05-05 10:56 43.91981 27.86668 37051 ft 479 kts 118°
2026-05-05 10:57 43.88671 27.94679 37061 ft 478 kts 118°
2026-05-05 10:57 43.85360 28.02671 37057 ft 478 kts 118°
2026-05-05 10:58 43.82045 28.10649 37065 ft 478 kts 118°
2026-05-05 10:58 43.78748 28.18564 37061 ft 478 kts 118°
2026-05-05 10:59 43.75421 28.26528 37073 ft 478 kts 118°
2026-05-05 10:59 43.72088 28.34484 37067 ft 478 kts 118°
2026-05-05 11:00 43.68747 28.42438 37069 ft 479 kts 118°
2026-05-05 11:00 43.65419 28.50337 37090 ft 479 kts 118°
2026-05-05 11:01 43.62062 28.58286 37076 ft 480 kts 118°
2026-05-05 11:01 43.58697 28.66229 37078 ft 480 kts 118°
2026-05-05 11:02 43.55326 28.74168 37083 ft 480 kts 118°
2026-05-05 11:02 43.51948 28.82097 37095 ft 480 kts 118°
2026-05-05 11:03 43.48587 28.89968 37087 ft 480 kts 118°
2026-05-05 11:03 43.45197 28.97884 37088 ft 480 kts 118°
2026-05-05 11:04 43.41804 29.05785 37087 ft 479 kts 119°
2026-05-05 11:04 43.38408 29.13674 37087 ft 480 kts 118°
2026-05-05 11:05 43.35025 29.21509 37088 ft 480 kts 118°
2026-05-05 11:05 43.31616 29.29383 37087 ft 480 kts 119°
2026-05-05 11:06 43.28201 29.37250 37091 ft 480 kts 118°
2026-05-05 11:06 43.24777 29.45118 37084 ft 481 kts 119°
2026-05-05 11:07 43.21368 29.52930 37082 ft 481 kts 119°
2026-05-05 11:07 43.17923 29.60802 37080 ft 482 kts 119°
2026-05-05 11:08 43.14473 29.68664 37076 ft 482 kts 119°
2026-05-05 11:08 43.11015 29.76525 37079 ft 482 kts 119°
2026-05-05 11:09 43.07549 29.84381 37078 ft 482 kts 119°
2026-05-05 11:09 43.04100 29.92180 37081 ft 483 kts 119°
2026-05-05 11:10 43.00619 30.00028 37070 ft 483 kts 119°
2026-05-05 11:10 42.97128 30.07878 37076 ft 483 kts 119°
2026-05-05 11:11 42.93633 30.15719 37069 ft 484 kts 119°
2026-05-05 11:11 42.90153 30.23502 37065 ft 484 kts 119°
2026-05-05 11:12 42.86639 30.31344 37064 ft 485 kts 119°
2026-05-05 11:12 42.83119 30.39178 37069 ft 485 kts 119°
2026-05-05 11:13 42.79594 30.47005 37052 ft 485 kts 119°
2026-05-05 11:13 42.76115 30.54789 37066 ft 484 kts 116°
2026-05-05 11:14 42.73666 30.63231 37073 ft 478 kts 102°
2026-05-05 11:14 42.72538 30.72093 37065 ft 475 kts 95°
2026-05-05 11:15 42.71694 30.81028 37058 ft 477 kts 95°
2026-05-05 11:15 42.70822 30.89914 37040 ft 478 kts 95°
2026-05-05 11:16 42.69909 30.98858 37044 ft 477 kts 95°
2026-05-05 11:16 42.68981 31.07789 37046 ft 477 kts 95°
2026-05-05 11:17 42.68046 31.16720 37045 ft 477 kts 95°
2026-05-05 11:17 42.67111 31.25599 37035 ft 478 kts 95°
2026-05-05 11:18 42.66164 31.34528 37039 ft 477 kts 95°
2026-05-05 11:18 42.65211 31.43446 37038 ft 477 kts 95°
2026-05-05 11:19 42.64251 31.52362 37044 ft 477 kts 95°
2026-05-05 11:19 42.63290 31.61229 37029 ft 478 kts 95°
2026-05-05 11:20 42.62314 31.70159 37031 ft 478 kts 95°
2026-05-05 11:20 42.61330 31.79098 37039 ft 479 kts 96°
2026-05-05 11:21 42.60339 31.88040 37043 ft 480 kts 96°
2026-05-05 11:21 42.59339 31.97003 37035 ft 480 kts 96°
2026-05-05 11:22 42.58296 32.05896 37026 ft 481 kts 97°
2026-05-05 11:22 42.57213 32.14849 37031 ft 481 kts 96°
2026-05-05 11:23 42.56208 32.23811 37041 ft 481 kts 96°
2026-05-05 11:23 42.55193 32.32779 37034 ft 481 kts 96°
2026-05-05 11:24 42.54165 32.41673 37030 ft 480 kts 96°
2026-05-05 11:24 42.53120 32.50605 37018 ft 479 kts 96°
2026-05-05 11:25 42.52069 32.59518 37032 ft 478 kts 96°
2026-05-05 11:25 42.51017 32.68401 37026 ft 477 kts 96°
2026-05-05 11:26 42.49967 32.77198 37030 ft 475 kts 96°
2026-05-05 11:26 42.48906 32.86029 37030 ft 475 kts 96°
2026-05-05 11:27 42.47840 32.94850 37031 ft 474 kts 96°
2026-05-05 11:27 42.46768 33.03664 37034 ft 474 kts 96°
2026-05-05 11:28 42.45688 33.12483 37034 ft 475 kts 96°
2026-05-05 11:28 42.44615 33.21250 37034 ft 476 kts 96°
2026-05-05 11:29 42.43532 33.30093 37045 ft 477 kts 97°
2026-05-05 11:29 42.42441 33.38955 37030 ft 478 kts 97°
2026-05-05 11:30 42.41332 33.47815 37041 ft 478 kts 97°
2026-05-05 11:30 42.40211 33.56614 37031 ft 478 kts 97°
2026-05-05 11:31 42.39079 33.65461 37048 ft 477 kts 97°
2026-05-05 11:31 42.37943 33.74294 37026 ft 476 kts 97°
2026-05-05 11:32 42.36804 33.83116 37030 ft 476 kts 98°
2026-05-05 11:32 42.35666 33.91862 37033 ft 475 kts 98°
2026-05-05 11:33 42.34517 34.00660 37043 ft 475 kts 98°
2026-05-05 11:33 42.33363 34.09461 37031 ft 476 kts 98°
2026-05-05 11:34 42.32202 34.18268 37028 ft 476 kts 98°
2026-05-05 11:34 42.31032 34.27084 37028 ft 477 kts 98°
2026-05-05 11:35 42.29862 34.35854 37038 ft 478 kts 98°
2026-05-05 11:35 42.28669 34.44688 37028 ft 479 kts 99°
2026-05-05 11:36 42.27453 34.53536 37028 ft 479 kts 99°
2026-05-05 11:36 42.26232 34.62388 37024 ft 480 kts 99°
2026-05-05 11:37 42.25014 34.71180 37031 ft 480 kts 99°
2026-05-05 11:37 42.23780 34.80042 37024 ft 480 kts 99°
2026-05-05 11:38 42.22542 34.88901 37026 ft 481 kts 99°
2026-05-05 11:38 42.21300 34.97769 37024 ft 481 kts 99°
2026-05-05 11:39 42.20061 35.06570 37029 ft 481 kts 100°
2026-05-05 11:39 42.18805 35.15433 37021 ft 481 kts 100°
2026-05-05 11:40 42.17542 35.24297 37022 ft 481 kts 100°
2026-05-05 11:40 42.16488 35.31661 37021 ft 481 kts 100°
2026-05-05 11:41 42.15006 35.41949 37024 ft 481 kts 100°
2026-05-05 11:41 42.13725 35.50805 37026 ft 481 kts 100°
2026-05-05 11:42 42.12660 35.58155 37019 ft 481 kts 101°
2026-05-05 11:42 42.11374 35.66987 37022 ft 480 kts 101°
2026-05-05 11:43 42.09871 35.77240 37026 ft 480 kts 101°
2026-05-05 11:43 42.08573 35.86046 37023 ft 479 kts 101°
2026-05-05 11:44 42.07489 35.93355 37018 ft 479 kts 101°
2026-05-05 11:44 42.06181 36.02139 37024 ft 479 kts 101°
2026-05-05 11:45 42.04865 36.10923 37027 ft 479 kts 101°
2026-05-05 11:45 42.03542 36.19706 37024 ft 479 kts 101°
2026-05-05 11:46 42.02221 36.28430 37017 ft 480 kts 101°
2026-05-05 11:46 42.00883 36.37216 37024 ft 480 kts 101°
2026-05-05 11:47 41.99538 36.46000 37027 ft 480 kts 101°
2026-05-05 11:47 41.98187 36.54782 37016 ft 480 kts 102°
2026-05-05 11:48 41.96156 36.67886 37024 ft 479 kts 102°
2026-05-05 11:48 41.94791 36.76644 37018 ft 479 kts 102°
2026-05-05 11:49 41.93419 36.85396 37016 ft 479 kts 102°
2026-05-05 11:49 41.92041 36.94148 37025 ft 479 kts 102°
2026-05-05 11:50 41.90635 37.02833 37028 ft 480 kts 105°
2026-05-05 11:50 41.88384 37.11251 37023 ft 480 kts 114°
2026-05-05 11:51 41.85736 37.19467 37021 ft 480 kts 114°
2026-05-05 11:51 41.83109 37.27708 37024 ft 481 kts 114°
2026-05-05 11:52 41.80520 37.35907 37018 ft 481 kts 113°
2026-05-05 11:52 41.77910 37.44165 37014 ft 482 kts 114°
2026-05-05 11:53 41.75287 37.52430 37019 ft 482 kts 114°
2026-05-05 11:53 41.72658 37.60690 37019 ft 483 kts 114°
2026-05-05 11:54 41.70015 37.68961 37021 ft 483 kts 114°
2026-05-05 11:54 41.67376 37.77168 37013 ft 484 kts 115°
2026-05-05 11:55 41.64712 37.85429 37020 ft 484 kts 115°
2026-05-05 11:55 41.62041 37.93690 37018 ft 484 kts 115°
2026-05-05 11:56 41.59367 38.01940 37003 ft 484 kts 115°
2026-05-05 11:56 41.56708 38.10121 37010 ft 483 kts 115°
2026-05-05 11:57 41.54024 38.18350 37011 ft 483 kts 115°
2026-05-05 11:57 41.51337 38.26565 37011 ft 483 kts 115°
2026-05-05 11:58 41.48646 38.34768 37009 ft 483 kts 116°
2026-05-05 11:58 41.45969 38.42905 37011 ft 482 kts 116°
2026-05-05 11:59 41.43270 38.51083 37007 ft 482 kts 116°
2026-05-05 11:59 41.40570 38.59243 37003 ft 481 kts 116°
2026-05-05 12:00 41.37868 38.67384 37008 ft 481 kts 116°
2026-05-05 12:00 41.35179 38.75464 37019 ft 480 kts 116°
2026-05-05 12:01 41.32479 38.83598 37019 ft 481 kts 116°
2026-05-05 12:01 41.29813 38.91751 37018 ft 481 kts 116°
2026-05-05 12:02 41.27140 38.99909 37017 ft 482 kts 116°
2026-05-05 12:02 41.24451 39.08069 37011 ft 482 kts 116°
2026-05-05 12:03 41.21773 39.16172 37000 ft 482 kts 116°
2026-05-05 12:03 41.19000 39.24289 37003 ft 483 kts 117°
2026-05-05 12:04 41.16154 39.32367 37003 ft 483 kts 118°
2026-05-05 12:04 41.13310 39.40452 36995 ft 484 kts 117°
2026-05-05 12:05 41.10487 39.48492 36993 ft 485 kts 117°
2026-05-05 12:05 41.07641 39.56585 36990 ft 484 kts 118°
2026-05-05 12:06 41.04795 39.64655 36994 ft 483 kts 118°
2026-05-05 12:06 41.01951 39.72693 36985 ft 481 kts 117°
2026-05-05 12:07 40.99832 39.81054 36994 ft 486 kts 104°
2026-05-05 12:07 40.99133 39.89969 37000 ft 489 kts 94°
2026-05-05 12:08 40.99002 39.98977 36998 ft 490 kts 94°
2026-05-05 12:08 40.98820 40.07996 36995 ft 491 kts 94°
2026-05-05 12:09 40.98590 40.16969 36993 ft 491 kts 95°
2026-05-05 12:09 40.98351 40.26007 36997 ft 492 kts 95°
2026-05-05 12:10 40.98105 40.35059 37003 ft 492 kts 95°
2026-05-05 12:10 40.97853 40.44120 36987 ft 493 kts 95°
2026-05-05 12:11 40.97606 40.52732 36998 ft 493 kts 95°
2026-05-05 12:11 40.97340 40.61800 36988 ft 493 kts 95°
2026-05-05 12:12 40.97067 40.70868 37002 ft 493 kts 95°
2026-05-05 12:12 40.96787 40.79930 36994 ft 493 kts 95°
2026-05-05 12:13 40.96501 40.88989 36966 ft 493 kts 95°
2026-05-05 12:13 40.96205 40.97978 36994 ft 493 kts 95°
2026-05-05 12:14 40.95897 41.07046 36970 ft 494 kts 95°
2026-05-05 12:14 40.95582 41.16115 36949 ft 494 kts 95°
2026-05-05 12:15 40.95259 41.25182 36951 ft 493 kts 95°
2026-05-05 12:15 40.94935 41.34249 36915 ft 493 kts 96°
2026-05-05 12:16 40.94605 41.43225 36921 ft 492 kts 96°
2026-05-05 12:16 40.94262 41.52278 36928 ft 493 kts 96°
2026-05-05 12:17 40.93913 41.61356 36904 ft 495 kts 96°
2026-05-05 12:17 40.93557 41.70449 36904 ft 496 kts 96°
2026-05-05 12:18 40.93194 41.79504 36885 ft 497 kts 96°
2026-05-05 12:18 40.92822 41.88616 36903 ft 496 kts 96°
2026-05-05 12:19 40.92443 41.97713 36904 ft 495 kts 96°
2026-05-05 12:19 40.92059 42.06789 36903 ft 494 kts 96°
2026-05-05 12:20 40.91670 42.15797 36894 ft 494 kts 97°
2026-05-05 12:20 40.91271 42.24849 36928 ft 493 kts 97°
2026-05-05 12:21 40.90866 42.33902 36922 ft 493 kts 97°
2026-05-05 12:21 40.90453 42.42946 36942 ft 493 kts 97°
2026-05-05 12:22 40.90033 42.52010 36909 ft 494 kts 97°
2026-05-05 12:22 40.89608 42.61024 36940 ft 495 kts 97°
2026-05-05 12:23 40.89173 42.70116 36945 ft 497 kts 97°
2026-05-05 12:23 40.88729 42.79233 36951 ft 498 kts 97°
2026-05-05 12:24 40.88277 42.88365 36946 ft 498 kts 97°
2026-05-05 12:24 40.87820 42.97448 36935 ft 499 kts 97°
2026-05-05 12:25 40.87352 43.06605 36956 ft 500 kts 98°
2026-05-05 12:25 40.86876 43.15777 36950 ft 501 kts 98°
2026-05-05 12:26 40.86392 43.24964 36952 ft 501 kts 98°
2026-05-05 12:26 40.85902 43.34144 36964 ft 501 kts 98°
2026-05-05 12:27 40.85406 43.43265 36936 ft 502 kts 98°
2026-05-05 12:27 40.84901 43.52451 36952 ft 501 kts 98°
2026-05-05 12:28 40.84389 43.61628 36940 ft 501 kts 98°
2026-05-05 12:28 40.83883 43.70789 36939 ft 500 kts 97°
2026-05-05 12:29 40.83600 43.79906 36941 ft 500 kts 96°
2026-05-05 12:29 40.83311 43.89081 36941 ft 500 kts 97°
2026-05-05 12:30 40.83004 43.98273 36936 ft 501 kts 97°
2026-05-05 12:30 40.82689 44.07466 36952 ft 502 kts 97°
2026-05-05 12:31 40.82368 44.16684 36940 ft 503 kts 97°
2026-05-05 12:31 40.82043 44.25862 36924 ft 504 kts 97°
2026-05-05 12:32 40.81705 44.35119 36921 ft 505 kts 97°
2026-05-05 12:32 40.81361 44.44385 36949 ft 507 kts 97°
2026-05-05 12:33 40.81012 44.53679 36905 ft 506 kts 97°
2026-05-05 12:33 40.80653 44.62878 36886 ft 505 kts 98°
2026-05-05 12:34 40.80284 44.72109 36899 ft 503 kts 98°
2026-05-05 12:34 40.79916 44.81315 36920 ft 503 kts 98°
2026-05-05 12:35 40.79533 44.90546 36896 ft 505 kts 98°
2026-05-05 12:35 40.79147 44.99750 36899 ft 507 kts 98°
2026-05-05 12:36 40.78752 45.09045 36909 ft 508 kts 98°
2026-05-05 12:36 40.78343 45.18354 36908 ft 509 kts 99°
2026-05-05 12:37 40.77928 45.27684 36911 ft 510 kts 99°
2026-05-05 12:37 40.77507 45.37037 36908 ft 511 kts 98°
2026-05-05 12:38 40.77082 45.46337 36911 ft 512 kts 99°
2026-05-05 12:38 40.76481 45.55678 36891 ft 510 kts 102°
2026-05-05 12:39 40.75624 45.64958 36914 ft 510 kts 103°
2026-05-05 12:39 40.74740 45.74268 36915 ft 512 kts 103°
2026-05-05 12:40 40.73874 45.83599 36895 ft 513 kts 103°
2026-05-05 12:40 40.73021 45.92862 36897 ft 512 kts 103°
2026-05-05 12:41 40.72157 46.02179 36887 ft 512 kts 103°
2026-05-05 12:41 40.71318 46.11508 36862 ft 513 kts 102°
2026-05-05 12:42 40.70466 46.20812 36887 ft 511 kts 103°
2026-05-05 12:42 40.69532 46.30040 36870 ft 511 kts 103°
2026-05-05 12:43 40.68615 46.39334 36893 ft 512 kts 103°
2026-05-05 12:43 40.67710 46.48650 36888 ft 512 kts 103°
2026-05-05 12:44 40.66802 46.57959 36889 ft 512 kts 103°
2026-05-05 12:44 40.65889 46.67203 36871 ft 512 kts 103°
2026-05-05 12:45 40.64962 46.76499 36900 ft 512 kts 103°
2026-05-05 12:45 40.64028 46.85791 36898 ft 512 kts 103°
2026-05-05 12:46 40.63086 46.95082 36884 ft 512 kts 104°
2026-05-05 12:46 40.62143 47.04316 36888 ft 512 kts 104°
2026-05-05 12:47 40.61188 47.13599 36882 ft 512 kts 104°
2026-05-05 12:47 40.60480 47.22933 36888 ft 515 kts 98°
2026-05-05 12:48 40.60246 47.32366 36886 ft 516 kts 97°
2026-05-05 12:48 40.60014 47.41737 36889 ft 516 kts 97°
2026-05-05 12:49 40.59738 47.51166 36890 ft 516 kts 98°
2026-05-05 12:49 40.59441 47.60587 36889 ft 515 kts 98°
2026-05-05 12:50 40.59137 47.70005 36889 ft 515 kts 98°
2026-05-05 12:50 40.58828 47.79417 36890 ft 515 kts 98°
2026-05-05 12:51 40.58514 47.88761 36890 ft 515 kts 98°
2026-05-05 12:51 40.58322 47.98180 36887 ft 518 kts 93°
2026-05-05 12:52 40.58634 48.07656 36868 ft 518 kts 92°
2026-05-05 12:52 40.58913 48.17066 36895 ft 518 kts 93°
2026-05-05 12:53 40.59161 48.26547 36894 ft 519 kts 93°
2026-05-05 12:53 40.59414 48.36046 36896 ft 520 kts 93°
2026-05-05 12:54 40.59781 48.50318 36855 ft 520 kts 93°
2026-05-05 12:55 40.60014 48.59750 36891 ft 519 kts 94°
2026-05-05 12:55 40.60241 48.69236 36873 ft 518 kts 94°
2026-05-05 12:56 40.60455 48.78713 36881 ft 518 kts 94°
2026-05-05 12:56 40.60664 48.88193 36882 ft 518 kts 94°
2026-05-05 12:57 40.60866 48.97655 36878 ft 516 kts 93°
2026-05-05 12:57 40.61058 49.07015 36869 ft 515 kts 94°
2026-05-05 12:58 40.61244 49.16416 36899 ft 514 kts 94°
2026-05-05 12:58 40.61533 49.25834 36889 ft 516 kts 91°
2026-05-05 12:59 40.62127 49.35258 36881 ft 517 kts 89°
2026-05-05 12:59 40.62738 49.44680 36887 ft 516 kts 90°
2026-05-05 13:00 40.63545 49.58751 36899 ft 516 kts 91°
2026-05-05 13:01 40.64561 49.77657 36897 ft 520 kts 91°
2026-05-05 13:01 40.65065 49.87160 36894 ft 521 kts 91°
2026-05-05 13:02 40.65560 49.96621 36893 ft 522 kts 91°
2026-05-05 13:02 40.66051 50.06158 36891 ft 522 kts 91°
2026-05-05 13:03 40.66534 50.15697 36865 ft 522 kts 92°
2026-05-05 13:03 40.67008 50.25229 36893 ft 521 kts 92°
2026-05-05 13:04 40.67471 50.34698 36904 ft 522 kts 92°
2026-05-05 13:04 40.67931 50.44236 36912 ft 522 kts 92°
2026-05-05 13:05 40.68383 50.53780 36913 ft 522 kts 92°
2026-05-05 13:05 40.68827 50.63319 36923 ft 522 kts 92°
2026-05-05 13:06 40.69261 50.72795 36900 ft 522 kts 92°
2026-05-05 13:06 40.69690 50.82339 36927 ft 522 kts 92°
2026-05-05 13:07 40.70111 50.91884 36928 ft 522 kts 92°
2026-05-05 13:07 40.70525 51.01506 37124 ft 528 kts 92°
2026-05-05 13:08 40.70731 51.06332 37392 ft 527 kts 92°
2026-05-05 13:08 40.70936 51.11151 37680 ft 527 kts 92°
2026-05-05 13:08 40.71135 51.15904 37936 ft 526 kts 92°
2026-05-05 13:08 40.71335 51.20720 38168 ft 527 kts 92°
2026-05-05 13:09 40.71532 51.25541 38385 ft 527 kts 92°
2026-05-05 13:09 40.71728 51.30367 38558 ft 528 kts 92°
2026-05-05 13:09 40.71922 51.35206 38659 ft 530 kts 92°
2026-05-05 13:09 40.72115 51.40051 38819 ft 530 kts 92°
2026-05-05 13:10 40.72572 51.49777 38928 ft 534 kts 88°
2026-05-05 13:10 40.73938 51.59354 38943 ft 535 kts 81°
2026-05-05 13:11 40.75589 51.68887 38939 ft 532 kts 81°
2026-05-05 13:11 40.77192 51.78390 38941 ft 530 kts 81°
2026-05-05 13:12 40.78740 51.87878 38939 ft 529 kts 82°
2026-05-05 13:12 40.80270 51.97375 38937 ft 529 kts 82°
2026-05-05 13:13 40.81789 52.06833 38926 ft 531 kts 82°
2026-05-05 13:13 40.83318 52.16385 38928 ft 533 kts 82°
2026-05-05 13:14 40.84846 52.25980 38930 ft 535 kts 82°
2026-05-05 13:14 40.86373 52.35628 38925 ft 537 kts 82°
2026-05-05 13:15 40.87887 52.45246 38930 ft 539 kts 82°
2026-05-05 13:15 40.89405 52.54945 38922 ft 539 kts 82°
2026-05-05 13:16 40.90593 52.64678 38917 ft 534 kts 91°
2026-05-05 13:16 40.90976 52.74440 38926 ft 531 kts 92°
2026-05-05 13:17 40.91330 52.84117 38925 ft 530 kts 91°
2026-05-05 13:17 40.91734 52.93838 38919 ft 529 kts 91°
2026-05-05 13:18 40.92146 53.03552 38923 ft 529 kts 91°
2026-05-05 13:18 40.92545 53.13271 38923 ft 529 kts 91°
2026-05-05 13:19 40.92920 53.22993 38918 ft 530 kts 91°
2026-05-05 13:19 40.93277 53.32655 38917 ft 530 kts 91°
2026-05-05 13:20 40.93632 53.42395 38914 ft 530 kts 91°
2026-05-05 13:20 40.93980 53.52135 38916 ft 530 kts 91°
2026-05-05 13:21 40.94321 53.61873 38906 ft 530 kts 91°
2026-05-05 13:21 40.94651 53.71546 38905 ft 530 kts 91°
2026-05-05 13:22 40.94974 53.81282 38904 ft 530 kts 91°
2026-05-05 13:22 40.95289 53.91010 38897 ft 529 kts 91°
2026-05-05 13:23 40.95596 54.00737 38902 ft 529 kts 91°
2026-05-05 13:23 40.95893 54.10396 38893 ft 529 kts 91°
2026-05-05 13:24 40.96183 54.20117 38896 ft 529 kts 91°
2026-05-05 13:24 40.96465 54.29840 38903 ft 529 kts 91°
2026-05-05 13:25 40.96739 54.39566 38895 ft 529 kts 91°
2026-05-05 13:25 40.97006 54.49305 38898 ft 530 kts 91°
2026-05-05 13:26 40.97262 54.58988 38900 ft 530 kts 92°
2026-05-05 13:26 40.97513 54.68741 38902 ft 530 kts 91°
2026-05-05 13:27 40.97755 54.78490 38887 ft 530 kts 91°
2026-05-05 13:27 40.97990 54.88228 38891 ft 530 kts 91°
2026-05-05 13:28 40.98210 54.97906 38883 ft 530 kts 91°
2026-05-05 13:28 40.98419 55.07648 38889 ft 529 kts 91°
2026-05-05 13:29 40.98621 55.17384 38875 ft 529 kts 91°
2026-05-05 13:29 40.98817 55.27114 38864 ft 529 kts 91°
2026-05-05 13:30 40.99003 55.36841 38837 ft 528 kts 91°
2026-05-05 13:30 40.99180 55.46490 38857 ft 527 kts 91°
2026-05-05 13:31 40.99350 55.56187 38860 ft 527 kts 91°
2026-05-05 13:31 40.99512 55.65891 38836 ft 527 kts 91°
2026-05-05 13:32 40.99667 55.75589 38832 ft 527 kts 92°
2026-05-05 13:32 40.99818 55.85211 38824 ft 526 kts 91°
2026-05-05 13:33 40.99973 55.94892 38814 ft 526 kts 91°
2026-05-05 13:33 41.00120 56.04572 38802 ft 525 kts 91°
2026-05-05 13:34 41.00257 56.14242 38806 ft 526 kts 91°
2026-05-05 13:34 41.00384 56.23842 38796 ft 525 kts 91°
2026-05-05 13:35 41.00505 56.33501 38801 ft 524 kts 91°
2026-05-05 13:35 41.00618 56.43144 38800 ft 524 kts 91°
2026-05-05 13:36 41.00884 56.52779 38795 ft 525 kts 85°
2026-05-05 13:36 41.02001 56.62329 38808 ft 525 kts 82°
2026-05-05 13:37 41.03198 56.71797 38802 ft 525 kts 82°
2026-05-05 13:37 41.04361 56.81341 38801 ft 525 kts 82°
2026-05-05 13:38 41.05486 56.90896 38810 ft 525 kts 83°
2026-05-05 13:38 41.06596 57.00456 38807 ft 525 kts 83°
2026-05-05 13:39 41.07694 57.09959 38812 ft 525 kts 83°